Regional Weather Roundup
Issued by NWS Burlington, VT

Current Version | Previous Version | Text Only | Print | Product List | Glossary On
Versions: 1 2 3 4 5 6 7 8 9 10 11 12 13 14 15 16 17 18 19 20 21 22 23 24 25 26 27 28 29 30 31 32 33 34 35 36 37 38 39 40 41 42 43 44 45 46 47 48 49 50
000
ASUS41 KBTV 242330
RWRBTV
VERMONT REGIONAL WEATHER ROUNDUP
NATIONAL WEATHER SERVICE BURLINGTON VT
700 PM EDT THU JUL 24 2014

NOTE: "FAIR" INDICATES FEW OR NO CLOUDS BELOW 12,000 FEET WITH NO
SIGNIFICANT WEATHER AND/OR OBSTRUCTIONS TO VISIBILITY.

* THESE REPORTS ARE NOT UNDER NWS QUALITY CONTROL AND/OR DO NOT
  REPORT WEATHER SUCH AS PRECIPITATION AND FOG.

VTZ001>019-250000-
_____VERMONT_____


CITY           SKY/WX    TMP DP  RH WIND       PRES   REMARKS
BURLINGTON     CLEAR     71  50  47 N10       29.91R
MONTPELIER     CLEAR     66  51  58 NW7       29.95S
MORRISVILLE    CLEAR    N/A N/A N/A N5        29.93S
ST. JOHNSBURY*   N/A     68  49  50 MISG      29.89R
LYNDONVILLE*   FAIR      65  48  54 NW5       29.94R
MIDDLEBURY*    FAIR      69  53  56 N5        29.90S
RUTLAND*       MOCLDY    70  52  52 NW6       29.91R
SPRINGFIELD    PTCLDY    73  49  42 N5        29.89R
HIGHGATE*      FAIR      68  51  53 W3        29.91S
NEWPORT*       FAIR     N/A N/A N/A NW7       29.93R
BENNINGTON     CLEAR     73  54  51 NW5       29.89S
SUTTON*          N/A     64 N/A N/A MISG        N/A
MT. MANSFIELD*   N/A     52 N/A N/A NW14        N/A

_____LAKE CHAMPLAIN_____


CITY           SKY/WX    TMP DP  RH WIND       PRES   REMARKS
COLCHESTER RF*   N/A     70  50  49 N17         N/A
DIAMOND ISL*     N/A     70  52  52 N13         N/A

$$

NYZ007-026>031-035-052-083-250000-
_____NORTHERN NEW YORK_____


CITY           SKY/WX    TMP DP  RH WIND       PRES   REMARKS
PLATTSBURGH    CLEAR     70  49  47 NW8       29.91R
SARANAC LAKE   CLEAR     64  47  53 VRB6      29.95R
MASSENA        CLEAR     69  53  56 SW5       29.94S
OGDENSBURG*    CLEAR     72  57  60 SW3       29.94S
POTSDAM*       CLEAR     68  55  64 CALM      29.95S
WATERTOWN      CLEAR     69  52  54 W7        29.97R
FT DRUM        CLEAR     69  49  50 NW6       29.96S
ALBANY         MOCLDY    74  55  51 NW6       29.88R
GLENS FALLS    CLEAR     73  55  53 NE7       29.88R

$$
NHZ002-005-011-250000-
_____NEW HAMPSHIRE_____


CITY           SKY/WX    TMP DP  RH WIND       PRES   REMARKS
LEBANON        CLEAR     73  49  42 N9        29.88S
KEENE          CLEAR     73  50  43 N7        29.88R
MT WASHINGTON  FOG       43  43 100 W18         N/A  VSB 1/8
PLYMOUTH       FAIR      70  50  49 NW8       29.87S
WHITEFIELD     CLEAR     68  50  52 N7        29.91R

$$

_____REGIONAL QUEBEC LOCATIONS_____


CITY           SKY/WX    TMP DP  RH WIND       PRES   REMARKS
MONTREAL       PTCLDY    72  50  46 SW14      29.89S
QUEBEC CITY    PTCLDY    70  50  49 SW13G20   29.83R
SHERBROOKE     CLEAR     66  50  55 W8        29.90R

_____REGIONAL ONTARIO LOCATIONS_____


CITY           SKY/WX    TMP DP  RH WIND       PRES   REMARKS
OTTAWA         PTCLDY    72  54  53 W7        29.92F

______KEY______
VSB  - VISIBILITY IN MILES
WCI  - WIND CHILL INDEX
HX   - HEAT INDEX
$$



USA.gov is the U.S. government's official web portal to all federal, state and local government web resources and services.